Home   Weather   Vöcklabruck   Past weeks

Flag for Austria Past Weather in Vöcklabruck, Upper Austria, Austria — Yesterday and Last 2 Weeks

Now
56 °F

Cool.


Feels Like: 55 °F
Forecast: 55 / 68 °F
Wind: 6 mph from Southwest

Location: Kremsmuenster

Current Time: Jul 26, 2017 at 4:52:44 am

Latest Report: Jul 26, 2017 at 4:00 am


Visibility: N/A

Pressure: 29.72 "Hg

Humidity: 79%

Dew Point: 50 °F

Location of VöcklabruckLocation

Past Weather in Vöcklabruck — Graph

°F

Vöcklabruck Temperature Yesterday

Maximum temperature yesterday: 67 °F (at 4:00 pm)
Minimum temperature yesterday: 55 °F (at 5:00 am)
Average temperature yesterday: 60 °F

High & Low Weather Summary for the Past Weeks

 TemperatureHumidityPressure
High89 °F (Jul 19, 4:00 pm)93% (Jul 21, 2:00 am)30.30 "Hg (Jul 21, 2:00 am)
Low52 °F (Jul 14, 6:00 am)28% (Jul 19, 3:00 pm)29.72 "Hg (Jul 25, 6:00 pm)
Average68 °F66%29.99 "Hg
* Reported Jul 11 2:00 am — Jul 26 2:00 am, Vöcklabruck. Weather by CustomWeather, © 2017

Note: Actual official high and low records may vary slightly from our data, if they occured in-between our weather recording intervals... More about our weather records

Advertising

Vöcklabruck Weather History for the Previous 24 Hours

Scroll right to see more
 ConditionsComfort  
Time TempWeatherWind HumidityBarometerVisibility
2:00 am
Wed, Jul 26
57 °FCool.6 mph77%29.75 "HgN/A
1:00 am58 °FCool.6 mph72%29.75 "HgN/A
12:00 am57 °FCool.5 mph75%29.76 "HgN/A
11:00 pm
Tue, Jul 25
57 °FCool.8 mph75%29.76 "HgN/A
10:00 pm56 °FCool.6 mph79%29.78 "HgN/A
9:00 pm57 °FCool.6 mph82%29.79 "HgN/A
8:00 pmN/APassing clouds.8 mphN/AN/A2 mi
7:00 pm64 °FMild.9 mph56%29.75 "HgN/A
6:00 pm66 °FMild.7 mph53%29.72 "HgN/A
5:00 pm65 °FOvercast.14 mph52%29.74 "Hg16 mi
4:00 pm67 °FMild.9 mph51%29.74 "HgN/A
3:00 pm64 °FMild.13 mph55%29.75 "HgN/A
2:00 pm64 °FMild.8 mph61%29.75 "HgN/A
1:00 pm62 °FCool.9 mph64%29.77 "HgN/A
12:00 pm62 °FCool.9 mph61%29.76 "HgN/A
11:00 am60 °FOvercast.8 mph66%29.77 "Hg19 mi
10:00 am59 °FCool.7 mph73%29.77 "HgN/A
9:00 am59 °FCool.8 mph73%29.77 "HgN/A
8:00 am57 °FOvercast.6 mph78%29.79 "Hg8 mi
7:00 am56 °FOvercast.6 mph80%29.79 "Hg7 mi
6:00 am57 °FCool.5 mph77%29.78 "HgN/A
5:00 am55 °FCool.2 mph82%29.80 "HgN/A
4:00 am56 °FCool.5 mph80%29.81 "HgN/A
Weather by CustomWeather, © 2017

See weather overviewHow to use our weather pages